^^
Meteo Knjazevac Station Historical Data
Daily Summary for May 8, 2022 Units:  English    Metric   Both
Daily Weekly Monthly Yearly Custom
  High: Low: Average:
Temperature: 58.3 °F 51.3 °F 54.4 °F
Dew Point: 54.5 °F 50.6 °F 52.6 °F
Humidity: 99% 84% 94%
Wind Speed: 8.1mph 0mph 3.8mph
Wind Gust: 9mph - -
Wind- - SW
Pressure: 30.24 in 30.20 in -
Precipitation: 0.00 in    
Historical Graphs
 
 
Tabular Data for May 8, 2022
Time Temperature Dew Point Pressure Wind Wind Speed Wind Gust Humidity Rainfall Rate (Hourly) solar Conditions
00:04 52.9 °F 52.6 °F 30.21 in NNE 2.3 mph 3 mph 99% 0.00 in 0 W/m2
00:09 52.9 °F 52.6 °F 30.21 in NNE 2.4 mph 2 mph 99% 0.00 in 0 W/m2
00:14 52.9 °F 52.6 °F 30.21 in NNE 1.2 mph 2 mph 99% 0.00 in 0 W/m2
00:19 52.9 °F 52.6 °F 30.21 in North 1.4 mph 2 mph 99% 0.00 in 0 W/m2
00:24 52.8 °F 52.5 °F 30.21 in NNW 1.8 mph 2 mph 99% 0.00 in 0 W/m2
00:29 52.7 °F 52.4 °F 30.21 in Calm   2 mph 99% 0.00 in 0 W/m2
00:34 52.7 °F 52.4 °F 30.21 in North 0.7 mph 0.7 mph 99% 0.00 in 0 W/m2
00:39 52.7 °F 52.4 °F 30.21 in North 1.1 mph 2 mph 99% 0.00 in 0 W/m2
00:44 52.7 °F 52.4 °F 30.21 in NNW 1.5 mph 2 mph 99% 0.00 in 0 W/m2
00:49 52.7 °F 52.4 °F 30.21 in NW 2.2 mph 2 mph 99% 0.00 in 0 W/m2
00:54 52.7 °F 52.4 °F 30.21 in NW 0.7 mph 2 mph 99% 0.00 in 0 W/m2
00:59 52.7 °F 52.4 °F 30.21 in NNW 1.7 mph 1.6 mph 99% 0.00 in 0 W/m2
01:04 52.7 °F 52.4 °F 30.21 in North 2.5 mph 2 mph 99% 0.00 in 0 W/m2
01:09 52.8 °F 52.5 °F 30.21 in NNE 2.3 mph 3 mph 99% 0.00 in 0 W/m2
01:14 52.8 °F 52.5 °F 30.21 in NNE 3.8 mph 3.4 mph 99% 0.00 in 0 W/m2
01:19 52.7 °F 52.4 °F 30.21 in NE 3.6 mph 5 mph 99% 0.00 in 0 W/m2
01:24 52.7 °F 52.4 °F 30.21 in NE 0.6 mph 4 mph 99% 0.00 in 0 W/m2
01:29 52.7 °F 52.4 °F 30.21 in NNE 1.6 mph 1.3 mph 99% 0.00 in 0 W/m2
01:34 52.7 °F 52.4 °F 30.21 in North 1.5 mph 2 mph 99% 0.00 in 0 W/m2
01:39 52.7 °F 52.4 °F 30.21 in NNW 1.7 mph 2 mph 99% 0.00 in 0 W/m2
01:44 52.6 °F 52.3 °F 30.21 in NNW 1.4 mph 2 mph 99% 0.00 in 0 W/m2
01:49 52.7 °F 52.4 °F 30.21 in NNW 1.4 mph 2 mph 99% 0.00 in 0 W/m2
01:54 52.7 °F 52.4 °F 30.21 in NW 1.9 mph 2 mph 99% 0.00 in 0 W/m2
01:59 52.6 °F 52.3 °F 30.21 in NW 1.2 mph 2 mph 99% 0.00 in 0 W/m2
02:04 52.6 °F 52.3 °F 30.21 in NW 0.8 mph 2 mph 99% 0.00 in 0 W/m2
02:09 52.7 °F 52.4 °F 30.21 in WNW 2.6 mph 2 mph 99% 0.00 in 0 W/m2
02:14 52.7 °F 52.4 °F 30.21 in WSW 2.2 mph 3 mph 99% 0.00 in 0 W/m2
02:19 52.6 °F 52.3 °F 30.21 in West 2.1 mph 2 mph 99% 0.00 in 0 W/m2
02:24 52.5 °F 52.2 °F 30.21 in WNW 2.6 mph 3 mph 99% 0.00 in 0 W/m2
02:29 52.6 °F 52.3 °F 30.21 in West 3.3 mph 3 mph 99% 0.00 in 0 W/m2
02:34 52.6 °F 52.3 °F 30.21 in West 3 mph 3 mph 99% 0.00 in 0 W/m2
02:39 52.6 °F 52.3 °F 30.21 in West 3.3 mph 3 mph 99% 0.00 in 0 W/m2
02:44 52.7 °F 52.4 °F 30.21 in West 3.7 mph 4 mph 99% 0.00 in 0 W/m2
02:49 52.7 °F 52.4 °F 30.21 in WNW 3.3 mph 5 mph 99% 0.00 in 0 W/m2
02:54 52.7 °F 52.4 °F 30.21 in WNW 3.4 mph 4 mph 99% 0.00 in 0 W/m2
02:59 52.7 °F 52.4 °F 30.21 in WNW 3.2 mph 4 mph 99% 0.00 in 0 W/m2
03:04 52.7 °F 52.4 °F 30.21 in WNW 3 mph 4 mph 99% 0.00 in 0 W/m2
03:09 52.6 °F 52.3 °F 30.21 in West 2.1 mph 4 mph 99% 0.00 in 0 W/m2
03:14 52.6 °F 52.3 °F 30.21 in West 2.4 mph 2 mph 99% 0.00 in 0 W/m2
03:19 52.6 °F 52.3 °F 30.21 in WNW 2.6 mph 3 mph 99% 0.00 in 0 W/m2
03:24 52.5 °F 52.2 °F 30.21 in WNW 3 mph 3 mph 99% 0.00 in 0 W/m2
03:29 52.5 °F 52.2 °F 30.21 in West 3.4 mph 4 mph 99% 0.00 in 0 W/m2
03:34 52.5 °F 52.2 °F 30.21 in West 3.5 mph 4 mph 99% 0.00 in 0 W/m2
03:39 52.5 °F 52.2 °F 30.21 in West 3.2 mph 4 mph 99% 0.00 in 0 W/m2
03:44 52.4 °F 52.1 °F 30.21 in West 2.7 mph 5 mph 99% 0.00 in 0 W/m2
03:49 52.3 °F 52.1 °F 30.20 in West 2.2 mph 3 mph 99% 0.00 in 0 W/m2
03:54 52.3 °F 52.1 °F 30.20 in West 2.8 mph 3 mph 99% 0.00 in 0 W/m2
03:59 52.3 °F 52.1 °F 30.20 in WSW 2.4 mph 3 mph 99% 0.00 in 0 W/m2
04:04 52.3 °F 52.1 °F 30.20 in West 3.2 mph 3.1 mph 99% 0.00 in 0 W/m2
04:09 52.3 °F 52.1 °F 30.21 in West 4 mph 4 mph 99% 0.00 in 0 W/m2
04:14 52.3 °F 52.1 °F 30.21 in West 4.5 mph 5 mph 99% 0.00 in 0 W/m2
04:19 52.2 °F 52 °F 30.21 in West 4.6 mph 5 mph 99% 0.00 in 0 W/m2
04:24 52.2 °F 51.9 °F 30.21 in West 5.2 mph 5 mph 99% 0.00 in 0 W/m2
04:29 52.2 °F 51.9 °F 30.21 in West 5 mph 6 mph 99% 0.00 in 0 W/m2
04:34 52.2 °F 51.9 °F 30.21 in WSW 6.9 mph 7 mph 99% 0.00 in 0 W/m2
04:39 52.1 °F 51.8 °F 30.21 in WSW 8.1 mph 9 mph 99% 0.00 in 0 W/m2
04:44 52 °F 51.7 °F 30.21 in SW 6.8 mph 9 mph 99% 0.00 in 0 W/m2
04:49 51.9 °F 51.6 °F 30.21 in SW 6 mph 7 mph 99% 0.00 in 0 W/m2
04:54 51.8 °F 51.5 °F 30.21 in SW 5.4 mph 6 mph 99% 0.00 in 0 W/m2
04:59 51.8 °F 51.5 °F 30.21 in WSW 4.4 mph 6 mph 99% 0.00 in 0 W/m2
05:04 51.8 °F 51.5 °F 30.21 in WSW 4.4 mph 5 mph 99% 0.00 in 0 W/m2
05:09 51.8 °F 51.5 °F 30.21 in SW 4.6 mph 5 mph 99% 0.00 in 0 W/m2
05:14 51.8 °F 51.5 °F 30.21 in SW 5.4 mph 6 mph 99% 0.00 in 0 W/m2
05:19 51.8 °F 51.5 °F 30.21 in SW 5.4 mph 6 mph 99% 0.00 in 0 W/m2
05:24 51.8 °F 51.5 °F 30.21 in WSW 4.2 mph 6 mph 99% 0.00 in 0 W/m2
05:29 51.8 °F 51.5 °F 30.21 in WSW 3.9 mph 5 mph 99% 0.00 in 0 W/m2
05:34 51.8 °F 51.5 °F 30.21 in WSW 4.2 mph 5 mph 99% 0.00 in 0 W/m2
05:39 51.8 °F 51.5 °F 30.21 in West 4.8 mph 5 mph 99% 0.00 in 0 W/m2
05:44 51.8 °F 51.5 °F 30.21 in WSW 4.2 mph 6 mph 99% 0.00 in 0 W/m2
05:49 51.7 °F 51.4 °F 30.21 in WSW 4 mph 5 mph 99% 0.00 in 0 W/m2
05:54 51.6 °F 51.3 °F 30.21 in WSW 4.4 mph 5 mph 99% 0.00 in 0 W/m2
05:59 51.6 °F 51.3 °F 30.21 in WSW 3.5 mph 6 mph 99% 0.00 in 0 W/m2
06:04 51.6 °F 51.3 °F 30.21 in WSW 4 mph 4 mph 99% 0.00 in 0 W/m2
06:09 51.6 °F 51.3 °F 30.21 in WSW 4 mph 5 mph 99% 0.00 in 0 W/m2
06:14 51.5 °F 51.3 °F 30.21 in WSW 4.8 mph 5 mph 99% 0.00 in 1 W/m2
06:19 51.4 °F 51.2 °F 30.21 in WSW 5.2 mph 6 mph 99% 0.00 in 1 W/m2
06:24 51.4 °F 51.2 °F 30.22 in SW 6.3 mph 6 mph 99% 0.00 in 1 W/m2
06:29 51.4 °F 51.2 °F 30.22 in SW 6.6 mph 7 mph 99% 0.00 in 2 W/m2
06:34 51.3 °F 51.1 °F 30.22 in SW 6.1 mph 7 mph 99% 0.00 in 3 W/m2
06:39 51.4 °F 51.1 °F 30.22 in SW 5.3 mph 7 mph 99% 0.00 in 7 W/m2
06:44 51.3 °F 51.1 °F 30.22 in SW 4.5 mph 6 mph 99% 0.00 in 7 W/m2
06:49 51.3 °F 51 °F 30.22 in SW 5.4 mph 5 mph 99% 0.00 in 10 W/m2
06:54 51.3 °F 51.1 °F 30.22 in SW 4 mph 6 mph 99% 0.00 in 13 W/m2
06:59 51.4 °F 51.2 °F 30.22 in SW 3.4 mph 5 mph 99% 0.00 in 16 W/m2
07:04 51.4 °F 51.2 °F 30.22 in SW 3.9 mph 5 mph 99% 0.00 in 16 W/m2
07:09 51.4 °F 51.2 °F 30.23 in SW 4.1 mph 5 mph 99% 0.00 in 13 W/m2
07:14 51.4 °F 51.2 °F 30.23 in SW 4 mph 5 mph 99% 0.00 in 12 W/m2
07:19 51.4 °F 51.2 °F 30.23 in SW 4.8 mph 5 mph 99% 0.00 in 18 W/m2
07:24 51.4 °F 51.2 °F 30.23 in SW 5.1 mph 6 mph 99% 0.00 in 25 W/m2
07:29 51.5 °F 51.3 °F 30.23 in SW 5.1 mph 6 mph 99% 0.00 in 28 W/m2
07:34 51.6 °F 51.3 °F 30.23 in SW 4.6 mph 6 mph 99% 0.00 in 32 W/m2
07:39 51.6 °F 51.3 °F 30.23 in SW 3.5 mph 6 mph 99% 0.00 in 34 W/m2
07:44 51.7 °F 51.4 °F 30.23 in SW 3.2 mph 4 mph 99% 0.00 in 40 W/m2
07:49 51.8 °F 51.5 °F 30.23 in SW 2.8 mph 3 mph 99% 0.00 in 45 W/m2
07:54 51.9 °F 51.6 °F 30.23 in SW 2.7 mph 3 mph 99% 0.00 in 60 W/m2
07:59 52 °F 51.7 °F 30.23 in WSW 2.3 mph 3 mph 99% 0.00 in 72 W/m2
08:04 52.2 °F 51.8 °F 30.23 in SW 2.6 mph 3 mph 99% 0.00 in 69 W/m2
08:09 52.2 °F 52 °F 30.23 in SW 3.1 mph 3 mph 99% 0.00 in 67 W/m2
08:14 52.3 °F 52.1 °F 30.23 in SSW 3.1 mph 3 mph 99% 0.00 in 73 W/m2
08:19 52.3 °F 52.1 °F 30.23 in SSW 2.7 mph 3 mph 99% 0.00 in 79 W/m2
08:24 52.5 °F 52.2 °F 30.23 in SW 3.6 mph 5 mph 99% 0.00 in 83 W/m2
08:29 52.6 °F 52.3 °F 30.23 in SW 3.3 mph 4 mph 99% 0.00 in 96 W/m2
08:34 52.8 °F 52.5 °F 30.23 in SW 2.8 mph 4 mph 99% 0.00 in 105 W/m2
08:39 52.9 °F 52.6 °F 30.23 in WSW 2.2 mph 3 mph 99% 0.00 in 109 W/m2
08:44 53.1 °F 52.9 °F 30.23 in SW 2.3 mph 3 mph 99% 0.00 in 108 W/m2
08:49 53.2 °F 53 °F 30.23 in WSW 3.3 mph 3 mph 99% 0.00 in 106 W/m2
08:54 53.4 °F 53.1 °F 30.23 in WSW 3.4 mph 3 mph 99% 0.00 in 107 W/m2
08:59 53.5 °F 53.2 °F 30.23 in WSW 4.5 mph 5 mph 99% 0.00 in 110 W/m2
09:04 53.6 °F 53.3 °F 30.23 in SW 4.7 mph 6 mph 99% 0.00 in 112 W/m2
09:09 53.6 °F 53.2 °F 30.23 in SW 5.7 mph 6 mph 98.6% 0.00 in 113 W/m2
09:14 53.5 °F 53 °F 30.23 in SW 4.9 mph 7 mph 98% 0.00 in 114 W/m2
09:19 53.6 °F 53 °F 30.23 in SW 5.7 mph 5.1 mph 98% 0.00 in 117 W/m2
09:24 53.6 °F 53 °F 30.23 in SW 6.2 mph 7 mph 98% 0.00 in 130 W/m2
09:29 53.6 °F 53 °F 30.23 in SW 6.5 mph 7 mph 98% 0.00 in 136 W/m2
09:34 53.8 °F 53.2 °F 30.23 in SW 6.3 mph 7 mph 98% 0.00 in 162 W/m2
09:39 54 °F 53.3 °F 30.24 in SW 6.2 mph 7 mph 98% 0.00 in 167 W/m2
09:44 54.1 °F 53 °F 30.24 in SW 6.9 mph 8 mph 96.2% 0.00 in 167 W/m2
09:49 54.2 °F 53.1 °F 30.23 in SW 6.7 mph 8 mph 96% 0.00 in 174 W/m2
09:54 54.4 °F 53.3 °F 30.23 in SW 5.8 mph 8 mph 96% 0.00 in 175 W/m2
09:59 54.6 °F 53.4 °F 30.24 in SW 6 mph 6 mph 95.8% 0.00 in 175 W/m2
10:04 54.7 °F 53.3 °F 30.24 in SW 4.6 mph 7 mph 95% 0.00 in 172 W/m2
10:09 54.8 °F 53.4 °F 30.23 in SW 5.1 mph 6 mph 95% 0.00 in 172 W/m2
10:14 54.9 °F 53.5 °F 30.23 in SW 3.9 mph 6 mph 95% 0.00 in 161 W/m2
10:19 55 °F 53.6 °F 30.23 in SW 4.3 mph 5 mph 95% 0.00 in 149 W/m2
10:24 55.1 °F 53.7 °F 30.24 in SW 4.3 mph 5 mph 95% 0.00 in 155 W/m2
10:29 55.2 °F 53.5 °F 30.24 in SW 4.4 mph 5 mph 94.1% 0.00 in 168 W/m2
10:34 55.3 °F 53.6 °F 30.23 in SW 3.4 mph 5 mph 94% 0.00 in 191 W/m2
10:39 55.7 °F 54 °F 30.23 in SW 3.7 mph 4 mph 94% 0.00 in 191 W/m2
10:44 55.8 °F 54.1 °F 30.23 in SSW 3.5 mph 5 mph 94% 0.00 in 187 W/m2
10:49 55.9 °F 54.1 °F 30.23 in SSW 4.3 mph 4 mph 93.8% 0.00 in 164 W/m2
10:54 55.9 °F 53.9 °F 30.23 in SSW 5 mph 5 mph 93% 0.00 in 149 W/m2
10:59 56.1 °F 54.1 °F 30.23 in SW 5.3 mph 6 mph 93% 0.00 in 137 W/m2
11:04 55.9 °F 53.9 °F 30.23 in WSW 5.5 mph 6 mph 93% 0.00 in 131 W/m2
11:09 55.9 °F 53.9 °F 30.23 in SW 6.2 mph 6 mph 93% 0.00 in 145 W/m2
11:14 55.8 °F 53.8 °F 30.23 in SW 7.1 mph 7 mph 93% 0.00 in 171 W/m2
11:19 55.9 °F 53.9 °F 30.23 in SW 6.2 mph 8 mph 93% 0.00 in 178 W/m2
11:24 56 °F 54 °F 30.23 in SW 5.1 mph 6 mph 93% 0.00 in 178 W/m2
11:29 56.2 °F 54.2 °F 30.23 in SW 4.7 mph 6 mph 93% 0.00 in 179 W/m2
11:34 56.4 °F 54.4 °F 30.23 in SW 4.5 mph 5 mph 93% 0.00 in 178 W/m2
11:39 56.6 °F 54.2 °F 30.23 in SW 4.8 mph 5 mph 91.9% 0.00 in 171 W/m2
11:44 56.7 °F 54 °F 30.23 in SW 5.4 mph 6 mph 90.8% 0.00 in 175 W/m2
11:49 56.7 °F 54 °F 30.23 in SW 5.3 mph 6 mph 90.6% 0.00 in 174 W/m2
11:54 56.8 °F 54.1 °F 30.23 in SW 4.5 mph 7 mph 90.5% 0.00 in 174 W/m2
11:59 56.8 °F 54 °F 30.22 in SW 4.4 mph 5 mph 90.3% 0.00 in 174 W/m2
12:04 57 °F 54.1 °F 30.22 in SW 4.1 mph 5 mph 90% 0.00 in 176 W/m2
12:09 57.1 °F 54.2 °F 30.22 in SSW 3.9 mph 5 mph 90% 0.00 in 166 W/m2
12:14 57.2 °F 54.3 °F 30.22 in SSW 3.7 mph 5 mph 90% 0.00 in 153 W/m2
12:19 57.2 °F 54.3 °F 30.22 in SW 4.5 mph 5 mph 90% 0.00 in 162 W/m2
12:24 57.4 °F 54.5 °F 30.22 in SW 3.8 mph 5 mph 90% 0.00 in 168 W/m2
12:29 57.4 °F 54.3 °F 30.22 in SW 4.7 mph 5 mph 89.3% 0.00 in 168 W/m2
12:34 57.5 °F 54.2 °F 30.22 in SW 5.7 mph 6 mph 89% 0.00 in 164 W/m2
12:39 57.4 °F 54.2 °F 30.22 in SW 6.3 mph 7 mph 89% 0.00 in 178 W/m2
12:44 57.4 °F 54.2 °F 30.22 in SW 5.9 mph 7 mph 89% 0.00 in 180 W/m2
12:49 57.5 °F 54.3 °F 30.22 in SW 4.9 mph 7 mph 89% 0.00 in 168 W/m2
12:54 57.6 °F 54.1 °F 30.21 in SW 5.6 mph 7 mph 88.4% 0.00 in 170 W/m2
12:59 57.6 °F 54 °F 30.21 in SW 5 mph 7 mph 88% 0.00 in 168 W/m2
13:04 57.7 °F 54.1 °F 30.21 in SW 5.6 mph 6 mph 88% 0.00 in 164 W/m2
13:09 57.7 °F 54.2 °F 30.21 in SW 5.6 mph 6 mph 88% 0.00 in 178 W/m2
13:14 57.7 °F 54.2 °F 30.21 in SW 5.2 mph 6 mph 88% 0.00 in 188 W/m2
13:19 57.9 °F 54.2 °F 30.21 in SW 6.5 mph 7 mph 87.3% 0.00 in 184 W/m2
13:24 57.9 °F 53.8 °F 30.21 in SW 5.1 mph 7 mph 86% 0.00 in 171 W/m2
13:29 58.1 °F 53.9 °F 30.21 in SW 4.6 mph 6 mph 86% 0.00 in 171 W/m2
13:34 58.1 °F 53.9 °F 30.21 in SW 4.8 mph 5 mph 86% 0.00 in 155 W/m2
13:39 58.1 °F 53.9 °F 30.21 in SW 5.7 mph 6 mph 86% 0.00 in 150 W/m2
13:44 58.2 °F 53.8 °F 30.21 in SW 5.6 mph 6 mph 85.3% 0.00 in 147 W/m2
13:49 58.2 °F 53.7 °F 30.21 in SW 5.1 mph 6 mph 85% 0.00 in 142 W/m2
13:54 58.2 °F 53.7 °F 30.21 in SW 5.5 mph 6 mph 85% 0.00 in 132 W/m2
13:59 58.3 °F 53.8 °F 30.21 in SW 5.4 mph 6 mph 85% 0.00 in 137 W/m2
14:04 58.3 °F 53.8 °F 30.21 in SW 4.9 mph 6 mph 85% 0.00 in 137 W/m2
14:09 58.3 °F 53.8 °F 30.21 in SW 5.4 mph 6 mph 84.9% 0.00 in 119 W/m2
14:14 58.3 °F 53.6 °F 30.21 in SW 5.5 mph 6 mph 84.3% 0.00 in 109 W/m2
14:19 58.3 °F 53.7 °F 30.21 in SW 4.9 mph 6 mph 84.7% 0.00 in 98 W/m2
14:24 58.3 °F 53.5 °F 30.21 in SW 5.2 mph 6 mph 84% 0.00 in 93 W/m2
14:29 58.1 °F 53.3 °F 30.21 in SW 5.3 mph 6 mph 84% 0.00 in 93 W/m2
14:34 58.1 °F 53.3 °F 30.21 in SW 5 mph 6 mph 84% 0.00 in 85 W/m2
14:39 58.1 °F 53.3 °F 30.21 in SW 5 mph 6 mph 84% 0.00 in 73 W/m2
14:44 58.1 °F 53.3 °F 30.21 in SW 5 mph 6 mph 84% 0.00 in 63 W/m2
14:49 58 °F 53.2 °F 30.21 in SW 5.1 mph 6 mph 84% 0.00 in 53 W/m2
14:54 57.9 °F 53.1 °F 30.21 in SW 4.6 mph 6 mph 84% 0.00 in 45 W/m2
14:59 57.9 °F 53.1 °F 30.21 in SW 6.9 mph 5.1 mph 84% 0.00 in 42 W/m2
15:04 57.7 °F 53 °F 30.21 in SW 5.1 mph 9 mph 84.4% 0.00 in 39 W/m2
15:09 57.7 °F 53.1 °F 30.21 in SW 4.5 mph 6 mph 84.7% 0.00 in 38 W/m2
15:14 57.6 °F 53.2 °F 30.21 in SW 4.5 mph 5 mph 85% 0.00 in 35 W/m2
15:19 57.6 °F 53.1 °F 30.21 in SW 4.2 mph 5 mph 85% 0.00 in 32 W/m2
15:24 57.6 °F 53.1 °F 30.21 in SW 3.9 mph 5 mph 85% 0.00 in 30 W/m2
15:29 57.6 °F 53.1 °F 30.21 in SW 2.4 mph 5 mph 85% 0.00 in 30 W/m2
15:34 57.5 °F 53 °F 30.21 in SW 2.9 mph 3 mph 85% 0.00 in 26 W/m2
15:39 57.4 °F 52.9 °F 30.21 in SSW 2.8 mph 3 mph 85% 0.00 in 25 W/m2
15:44 57.4 °F 52.9 °F 30.21 in SSW 2.2 mph 3 mph 85% 0.00 in 24 W/m2
15:49 57.4 °F 52.9 °F 30.21 in South 2.8 mph 2 mph 85% 0.00 in 20 W/m2
15:54 57.4 °F 52.9 °F 30.20 in SSW 2.9 mph 3 mph 85% 0.00 in 15 W/m2
15:59 57.2 °F 52.7 °F 30.20 in SW 3.5 mph 3.1 mph 85% 0.00 in 11 W/m2
16:04 57.1 °F 52.7 °F 30.20 in WSW 4 mph 4 mph 85% 0.00 in 8 W/m2
16:09 57 °F 52.7 °F 30.20 in WSW 3.5 mph 5 mph 85.4% 0.00 in 5 W/m2
16:14 56.9 °F 52.6 °F 30.20 in WSW 3.5 mph 4 mph 85.5% 0.00 in 4 W/m2
16:19 56.8 °F 52.7 °F 30.20 in SW 2.9 mph 4 mph 86% 0.00 in 2 W/m2
16:24 56.8 °F 52.6 °F 30.20 in SW 2.3 mph 3 mph 86% 0.00 in 1 W/m2
16:29 56.7 °F 52.5 °F 30.20 in WSW 2.9 mph 3 mph 86% 0.00 in 0 W/m2
16:34 56.6 °F 52.3 °F 30.20 in WSW 3 mph 3 mph 86% 0.00 in 0 W/m2
16:39 56.5 °F 52.3 °F 30.20 in WSW 3.4 mph 3 mph 86% 0.00 in 0 W/m2
16:44 56.3 °F 52.2 °F 30.20 in West 3.4 mph 3 mph 86% 0.00 in 0 W/m2
16:49 56.2 °F 52.1 °F 30.20 in West 3.3 mph 4 mph 86% 0.00 in 0 W/m2
16:54 56.1 °F 52 °F 30.20 in West 3 mph 4 mph 86% 0.00 in 0 W/m2
16:59 56 °F 52 °F 30.20 in WSW 3.6 mph 4 mph 86.4% 0.00 in 0 W/m2
17:04 55.9 °F 51.9 °F 30.20 in WSW 2.2 mph 4 mph 86.4% 0.00 in 0 W/m2
17:09 55.9 °F 52.4 °F 30.20 in West 2.2 mph 2 mph 88% 0.00 in 0 W/m2
17:14 55.8 °F 52.3 °F 30.21 in West 1.7 mph 2 mph 88% 0.00 in 0 W/m2
17:19 55.8 °F 52.3 °F 30.21 in West 1.2 mph 2 mph 88% 0.00 in 0 W/m2
17:24 55.8 °F 52.3 °F 30.21 in West 1.5 mph 1.3 mph 88% 0.00 in 0 W/m2
17:29 55.6 °F 52.1 °F 30.20 in WSW 2.2 mph 2 mph 88% 0.00 in 0 W/m2
17:34 55.6 °F 52.2 °F 30.21 in WSW 2.4 mph 2 mph 88.2% 0.00 in 0 W/m2
17:39 55.4 °F 52.2 °F 30.21 in WSW 1.5 mph 2 mph 89% 0.00 in 0 W/m2
17:44 55.4 °F 52.2 °F 30.21 in West 1.1 mph 1 mph 89% 0.00 in 0 W/m2
17:49 55.3 °F 52.1 °F 30.21 in West 1.1 mph 1 mph 89% 0.00 in 0 W/m2
17:54 55.2 °F 52 °F 30.21 in West 1.6 mph 1 mph 89% 0.00 in 0 W/m2
17:59 55.2 °F 52.2 °F 30.21 in West 1.6 mph 2 mph 89.8% 0.00 in 0 W/m2
18:04 55.2 °F 52.3 °F 30.21 in West 1.7 mph 2 mph 90% 0.00 in 0 W/m2
18:09 55.1 °F 52.3 °F 30.21 in West 2.1 mph 2 mph 90% 0.00 in 0 W/m2
18:14 55 °F 52.2 °F 30.21 in West 0.4 mph 2 mph 90% 0.00 in 0 W/m2
18:19 55 °F 52.2 °F 30.21 in Calm   1 mph 90% 0.00 in 0 W/m2
18:24 55 °F 52.2 °F 30.21 in Calm     90% 0.00 in 0 W/m2
18:29 54.9 °F 52.1 °F 30.21 in WSW 1.3 mph 1.3 mph 90% 0.00 in 0 W/m2
18:34 55 °F 52.2 °F 30.21 in South 2.5 mph 2.5 mph 90% 0.00 in 0 W/m2
18:39 54.9 °F 52.1 °F 30.21 in ENE 2.2 mph 3 mph 90% 0.00 in 0 W/m2
18:44 54.8 °F 51.9 °F 30.21 in NE 3.4 mph 3.1 mph 90% 0.00 in 0 W/m2
18:49 54.6 °F 51.5 °F 30.21 in ENE 3.8 mph 5 mph 89.5% 0.00 in 0 W/m2
18:54 54.3 °F 51.4 °F 30.21 in ESE 3.1 mph 5 mph 89.9% 0.00 in 0 W/m2
18:59 54.2 °F 51.3 °F 30.21 in ESE 2.2 mph 4 mph 90% 0.00 in 0 W/m2
19:04 54 °F 51.1 °F 30.21 in ESE 1.8 mph 2 mph 90% 0.00 in 0 W/m2
19:09 53.7 °F 50.8 °F 30.21 in SSE 3 mph 2.7 mph 90% 0.00 in 0 W/m2
19:14 53.3 °F 50.6 °F 30.21 in SE 3.2 mph 4 mph 90.2% 0.00 in 0 W/m2
19:19 53.2 °F 50.7 °F 30.21 in ESE 5.1 mph 5 mph 91% 0.00 in 0 W/m2
19:24 53.2 °F 50.7 °F 30.21 in SE 5.6 mph 7 mph 91% 0.00 in 0 W/m2
Knjazevac, Serbia
Compliments of Weather Underground - 2 mb